Snowfall_Accumulation
0.0 0.0 0.0 0.0 0.0 0.0 0.0 0.0 0.0 0.0 0.0 0.0 0.0 0.0 0.0 0.0 0.0 0.0 0.0 0.0 0.0 0.0 0.0 0.0 0.0 0.0 0.0 0.0 0.0 0.0 0.0 0.0 0.0 0.0 0.0 0.0 0.0 0.0
0.0 0.0 0.0 0.0 0.0 0.0 0.0 0.0 0.0 0.0 0.0 0.0 0.0 0.0 0.0 0.0 0.0 0.0 0.0 0.0 0.0 0.0 0.0 0.0 0.0 0.0 0.0 0.0 0.0 0.0 0.0 0.0 0.0 0.0 0.0 0.0 0.0 0.0
0.0 0.0 0.0 0.0 0.0 0.0 0.0 0.0 0.1 0.4 0.0 0.2 0.1 0.5 0.3 0.0 0.0 0.0 0.0 0.0 0.0 0.0 0.0 0.0 0.0 0.0 0.0 0.0 0.0 0.0 0.0 0.0 0.0 0.0 0.0 0.0 0.0 0.0
0.0 0.0 0.0 0.0 0.0 0.0 0.0 0.2 0.6 0.3 0.2 0.9 0.6 0.3 0.1 0.0 0.0 0.0 0.0 0.1 0.0 0.0 0.0 0.0 0.0 0.0 0.0 0.0 0.0 0.0 0.0 0.0 0.0 0.0 0.0 0.0 0.0 0.0
0.0 0.0 0.0 0.0 0.0 0.0 0.9 0.6 0.2 0.7 0.5 0.6 0.2 0.0 0.0 0.6 0.0 0.0 0.0 0.0 0.0 0.0 0.0 0.0 0.0 0.0 0.0 0.0 0.0 0.0 0.0 0.0 0.0 0.0 0.0 0.0 0.0 0.0
0.0 0.0 0.0 0.3 0.2 0.6 0.4 0.6 0.3 0.5 0.2 0.2 0.4 0.7 0.3 0.0 0.2 0.0 0.0 0.0 0.0 0.0 0.0 0.0 0.0 0.0 0.0 0.0 0.0 0.0 0.0 0.0 0.0 0.0 0.0 0.0 0.0 0.0
0.0 1.6 1.3 1.0 0.5 0.7 0.5 0.2 0.2 0.1 1.3 2.9 2.2 2.2 0.1 0.0 0.0 0.0 0.0 0.0 0.2 0.0 0.0 0.0 0.0 0.0 0.0 0.0 0.0 0.0 0.0 0.0 0.0 0.0 0.0 0.0 0.0 0.0
2.3 2.2 1.1 0.4 0.2 0.0 0.0 0.0 0.0 0.5 3.0 4.5 3.0 0.5 0.0 0.0 0.0 0.1 2.0 2.1 1.7 0.0 0.0 0.1 0.0 0.0 0.0 0.0 0.0 0.0 0.0 0.0 0.0 0.0 0.0 0.0 0.0 0.0
1.3 0.8 0.7 0.1 0.2 0.1 0.0 0.0 0.3 0.3 0.5 0.3 0.3 0.2 0.3 0.1 3.0 3.6 1.4 2.1 1.2 0.0 0.2 0.4 0.0 0.0 0.0 0.0 0.0 0.0 0.0 0.0 0.0 0.0 0.0 0.0 0.0 0.0
0.2 0.1 0.0 0.0 0.0 0.1 0.1 1.8 0.9 0.0 0.0 0.0 0.0 0.2 0.7 0.2 0.3 0.7 1.0 1.1 0.5 0.0 0.0 2.4 0.0 0.1 0.0 0.0 0.0 0.0 0.0 0.0 0.0 0.0 0.0 0.0 0.0 0.0
0.0 0.0 0.0 0.1 0.0 0.0 1.2 1.3 0.1 0.0 0.0 0.0 0.2 0.1 0.0 0.0 0.0 1.6 3.3 3.8 2.4 0.1 0.0 1.2 0.4 0.2 0.0 0.0 0.0 0.0 0.0 0.0 0.0 0.0 0.0 0.0 0.0 0.0
0.0 0.0 0.0 0.1 0.0 0.4 0.4 0.1 0.7 0.0 1.0 0.6 0.0 0.0 0.0 0.0 0.0 0.2 4.0 12.0 5.7 3.7 0.0 4.4 1.2 1.2 5.6 0.0 0.0 0.0 0.0 0.0 0.0 0.0 0.0 0.1 0.0 0.4
0.5 0.0 0.0 0.1 0.5 0.0 0.0 0.0 0.2 0.1 0.1 0.0 0.0 0.0 0.0 0.0 0.1 0.1 1.6 9.9 15.4 9.4 0.0 8.8 10.8 2.3 8.1 3.6 2.5 2.5 1.7 1.1 1.5 2.0 1.9 1.2 0.9 1.0
0.2 0.0 0.1 0.8 0.0 0.0 0.0 0.1 0.1 0.1 0.0 0.1 0.1 0.2 0.2 0.3 0.2 0.3 0.4 1.7 3.6 8.9 3.2 4.6 19.0 7.0 12.6 8.9 5.0 5.7 4.4 4.8 7.5 8.0 9.3 2.5 1.0 0.6
0.1 0.5 0.5 0.0 0.0 0.0 0.0 0.0 0.0 0.0 0.3 1.7 1.1 0.5 0.2 0.1 0.4 0.6 0.8 1.3 2.0 2.9 3.8 4.1 9.5 9.8 13.0 12.7 8.0 5.1 7.4 6.2 6.1 7.7 6.4 6.5 5.0 3.2
0.6 1.3 0.0 0.0 0.0 0.0 0.0 0.0 0.0 0.1 1.1 2.9 2.5 0.7 0.1 0.5 0.8 1.4 4.7 3.4 5.4 3.3 3.9 4.8 7.0 9.2 11.3 6.7 8.2 7.3 5.9 10.9 8.1 7.3 5.9 6.7 2.0 1.4
0.3 0.0 0.0 0.0 0.0 0.0 0.0 0.0 0.0 0.0 0.9 0.9 2.3 2.2 0.9 0.7 2.8 3.1 5.8 9.3 11.4 7.9 7.0 5.4 3.9 3.5 4.3 5.8 7.5 4.9 6.1 7.0 9.0 8.3 6.1 8.2 5.4 1.1
0.0 0.0 0.1 0.2 0.2 0.1 0.1 0.1 0.0 0.1 0.9 2.6 2.9 2.1 5.5 5.3 7.2 7.2 8.9 11.3 11.7 8.5 8.8 6.8 4.9 3.6 3.4 3.5 4.1 9.1 7.0 8.3 8.9 6.9 5.2 7.4 7.7 3.8
0.0 0.3 0.4 0.2 0.1 0.1 0.2 0.8 1.1 0.5 2.1 4.1 5.2 6.0 8.5 7.4 6.9 8.7 9.2 9.7 9.9 7.8 6.3 4.3 5.2 8.7 10.4 4.7 3.4 3.5 13.5 10.1 6.6 5.6 3.6 4.0 6.8 5.3
0.2 0.4 0.3 0.2 0.1 0.8 1.0 1.8 2.2 1.4 3.3 4.5 7.1 7.7 9.5 10.9 9.4 9.4 8.9 10.8 10.1 5.6 2.9 1.4 1.6 6.9 15.5 13.0 10.0 7.1 4.5 8.9 8.0 8.0 6.4 4.1 3.4 0.1
0.4 0.3 0.2 0.2 0.6 1.9 2.3 3.9 3.8 6.8 9.0 11.0 9.3 10.4 9.5 12.2 9.5 7.0 8.4 5.6 4.7 4.0 3.2 0.9 1.0 1.3 2.8 4.7 6.0 3.7 5.3 3.0 2.8 7.7 7.1 6.0 4.1 2.1
0.5 0.5 0.2 0.2 2.5 3.7 5.4 5.5 7.7 6.8 8.7 8.4 8.9 9.7 10.2 10.8 11.8 8.7 5.9 6.4 3.8 3.4 2.9 0.9 0.3 1.0 2.1 4.7 4.3 2.3 2.5 2.1 1.2 0.7 0.9 3.3 10.6 15.2
0.4 0.9 0.9 1.0 2.7 4.3 6.2 6.9 7.4 7.1 8.2 10.0 10.6 10.7 10.4 10.5 6.3 5.6 5.5 5.0 5.1 4.7 2.5 1.9 0.3 0.2 0.8 2.6 2.8 2.4 0.9 0.7 0.7 0.9 2.5 0.9 1.0 1.4